(231962) = 2001 QX5 = 2007 RS246

Discovered at Socorro on 2001-08-16 by LINEAR.

Orbit

Orbit type: Main Belt

Note: WebGL enabled browser required.

epoch2023-02-25.0
epoch JD2460000.5
perihelion date2018-01-07.91026
perihelion JD2458126.41026
argument of perihelion (°)344.46543
ascending node (°)308.27390
inclination (°)8.51159
eccentricity0.1522158
perihelion distance (AU)2.6732241
Tisserand w.r.t. Jupiter3.2
ΔV w.r.t. Earth (km/sec)10.5
semimajor axis (AU)3.1531893
mean anomaly (°)329.89001
mean daily motion (°/day)0.17602680
aphelion distance (AU)3.633
period (years)5.6
P-vector [x]0.38885499
P-vector [y]-0.82872469
P-vector [z]-0.40250117
Q-vector [x]0.91394215
Q-vector [y]0.29188805
Q-vector [z]0.28197714
absolute magnitude15.28
phase slope0.15
uncertainty0
referenceMPO 745323
observations used379
oppositions16
arc length (days)7988
first opposition used2001
last opposition used2023
residual rms (arc-secs)0.72
perturbers coarse indicatorM-v
perturbers precise indicator003Ek
first observation date used2001-08-03.0
last observation date used2023-06-17.0
computer nameMPCLINUX
JD of orbit computation2456639.566412
perihelion JD uncertainty (days)1.3779E-04
argument of perihelion uncertainty (°)5.1441E-05
ascending node uncertainty (°)4.5621E-05
inclination uncertainty (°)8.5962E-06
eccentricity uncertainty 7.1239E-08
perihelion distance uncertainty (AU)2.2389E-07
Minimum Orbit Intersection Distances (in AU)
for orbit epoch: 2460000.5, reference: E2023-M35
Mercury2.22159
Venus1.94526
Earth1.65744
Mars1.24824
Jupiter1.58383
Saturn5.46426
Uranus14.9527
Neptune26.5248

Observations

395 total observations over interval: 2001 08 03.45887 – 2023 06 17.468617
These data are available for download (format description).

Date (UT) J2000 RA J2000 Dec Magn Location Ref
2001 08 03.45887 22 04 42.42 -08 12 28.5 20.1   608 – Haleakala-AMOS MPS 34581
2001 08 03.47029 22 04 41.91 -08 12 28.4 20.0   608 – Haleakala-AMOS MPS 34581
2001 08 03.48047 22 04 41.43 -08 12 28.7 20.2   608 – Haleakala-AMOS MPS 34581
2001 08 15.54110 21 55 00.95 -08 19 47.5 19.6   608 – Haleakala-AMOS MPS 33488
2001 08 15.55132 21 55 00.43 -08 19 47.9 19.5   608 – Haleakala-AMOS MPS 33488
2001 08 15.56160 21 54 59.89 -08 19 48.1 19.5   608 – Haleakala-AMOS MPS 33488
2001 08 16.27254 21 54 24.25 -08 20 31.5 18.8   704 – Lincoln Laboratory ETS, New Mexico MPS 33488
2001 08 16.28482 21 54 23.62 -08 20 32.4 19.3   704 – Lincoln Laboratory ETS, New Mexico MPS 33488
2001 08 16.29719 21 54 22.96 -08 20 32.9 19.0   704 – Lincoln Laboratory ETS, New Mexico MPS 33488
2001 08 16.30944 21 54 22.33 -08 20 33.4 18.8   704 – Lincoln Laboratory ETS, New Mexico MPS 33488
2001 08 16.32166 21 54 21.73 -08 20 34.5 19.0   704 – Lincoln Laboratory ETS, New Mexico MPS 33488
2001 08 18.28406 21 52 42.49 -08 22 38.7 18.5   704 – Lincoln Laboratory ETS, New Mexico MPS 33488
2001 08 18.29646 21 52 41.82 -08 22 39.9 17.8   704 – Lincoln Laboratory ETS, New Mexico MPS 33488
2001 08 18.30891 21 52 41.13 -08 22 40.2 18.0   704 – Lincoln Laboratory ETS, New Mexico MPS 33488
2001 08 18.32146 21 52 40.50 -08 22 40.7 18.4   704 – Lincoln Laboratory ETS, New Mexico MPS 33488
2001 08 20.26559 21 51 02.24 -08 24 55.2 18.2   704 – Lincoln Laboratory ETS, New Mexico MPS 33488
2001 08 20.27800 21 51 01.61 -08 24 56.0 18.2   704 – Lincoln Laboratory ETS, New Mexico MPS 33488
2001 08 20.29054 21 51 01.00 -08 24 57.1 18.7   704 – Lincoln Laboratory ETS, New Mexico MPS 33488
2001 08 20.30295 21 51 00.30 -08 24 57.6 18.7   704 – Lincoln Laboratory ETS, New Mexico MPS 33488
2001 08 24.19217 21 47 45.81 -08 29 41.8 17.0 R 699 – Lowell Observatory-LONEOS MPS 33488
2001 08 24.21798 21 47 44.46 -08 29 44.4   699 – Lowell Observatory-LONEOS MPS 33488
2001 08 24.24396 21 47 43.18 -08 29 46.1   699 – Lowell Observatory-LONEOS MPS 33488
2001 08 24.26966 21 47 41.84 -08 29 48.7   699 – Lowell Observatory-LONEOS MPS 33488
2001 08 28.21781 21 44 30.30 -08 34 53.4 18.9   644 – Palomar Mountain/NEAT MPS 34581
2001 08 28.23928 21 44 29.24 -08 34 54.8 19.4   644 – Palomar Mountain/NEAT MPS 34581
2001 08 28.26066 21 44 28.19 -08 34 56.4 19.0   644 – Palomar Mountain/NEAT MPS 34581
2001 09 12.26150 21 34 10.31 -08 52 27.6 19.5   704 – Lincoln Laboratory ETS, New Mexico MPS 34581
2001 09 12.27601 21 34 09.86 -08 52 28.6 19.9   704 – Lincoln Laboratory ETS, New Mexico MPS 34581
2001 09 12.29048 21 34 09.34 -08 52 29.3 19.9   704 – Lincoln Laboratory ETS, New Mexico MPS 34581
2001 09 12.30508 21 34 08.81 -08 52 30.5 19.8   704 – Lincoln Laboratory ETS, New Mexico MPS 34581
2001 09 12.31956 21 34 08.28 -08 52 30.8 19.5   704 – Lincoln Laboratory ETS, New Mexico MPS 34581
2001 09 20.11675 21 30 28.66 -08 58 12.2 19.8   704 – Lincoln Laboratory ETS, New Mexico MPS 35917
2001 09 20.13103 21 30 28.35 -08 58 13.4 20.2   704 – Lincoln Laboratory ETS, New Mexico MPS 35917
2001 09 20.14530 21 30 27.98 -08 58 14.2 20.0   704 – Lincoln Laboratory ETS, New Mexico MPS 35917
2001 09 20.15966 21 30 27.61 -08 58 14.2 20.2   704 – Lincoln Laboratory ETS, New Mexico MPS 35917
2001 09 20.17390 21 30 27.26 -08 58 15.3 20.1   704 – Lincoln Laboratory ETS, New Mexico MPS 35917
2004 01 13.22773 07 38 54.23 +24 53 19.0 21.4 V 691 – Steward Observatory, Kitt Peak-Spacewatch MPS 240612
2004 01 13.26395 07 38 52.27 +24 53 20.6 21.2 V 691 – Steward Observatory, Kitt Peak-Spacewatch MPS 240612
2004 01 13.29049 07 38 50.79 +24 53 21.5 20.9 V 691 – Steward Observatory, Kitt Peak-Spacewatch MPS 240612
2005 03 08.20614 11 11 32.32 -03 26 13.5 19.8 V 691 – Steward Observatory, Kitt Peak-Spacewatch MPS 217724
2005 03 08.23340 11 11 30.98 -03 26 08.4 19.9 V 691 – Steward Observatory, Kitt Peak-Spacewatch MPS 217724
2005 03 08.25867 11 11 29.76 -03 26 03.5 19.8 V 691 – Steward Observatory, Kitt Peak-Spacewatch MPS 217724
2007 09 12.28979 00 32 36.38 +14 59 37.4 19.2 V 703 – Catalina Sky Survey MPS 217822
2007 09 12.29736 00 32 36.06 +14 59 38.0 19.0 V 703 – Catalina Sky Survey MPS 217822
2007 09 12.30491 00 32 35.73 +14 59 37.7 19.4 V 703 – Catalina Sky Survey MPS 217822
2007 09 12.31243 00 32 35.48 +14 59 36.4 19.4 V 703 – Catalina Sky Survey MPS 217822
2007 09 18.40167 00 28 03.93 +14 49 00.6 19.5 V 703 – Catalina Sky Survey MPS 217822
2007 09 18.40863 00 28 03.61 +14 49 00.0 19.2 V 703 – Catalina Sky Survey MPS 217822
2007 09 18.41561 00 28 03.21 +14 48 57.9 19.6 V 703 – Catalina Sky Survey MPS 217822
2007 09 18.42255 00 28 02.92 +14 48 57.7 19.0 V 703 – Catalina Sky Survey MPS 217822
2007 10 09.29746 00 11 28.39 +13 35 15.5 19.2 r 699 – Lowell Observatory-LONEOS MPS 218473
2007 10 09.31940 00 11 27.31 +13 35 08.9   699 – Lowell Observatory-LONEOS MPS 218473
2007 10 09.34135 00 11 26.40 +13 35 03.5   699 – Lowell Observatory-LONEOS MPS 218473
2007 10 09.36329 00 11 25.38 +13 34 57.7   699 – Lowell Observatory-LONEOS MPS 218473
2007 10 20.26694 00 03 57.38 +12 44 01.7 19.5 V 703 – Catalina Sky Survey MPS 222397
2007 10 20.27388 00 03 57.13 +12 43 59.2 19.3 V 703 – Catalina Sky Survey MPS 222397
2007 10 20.28080 00 03 56.88 +12 43 56.1 19.1 V 703 – Catalina Sky Survey MPS 222397
2007 10 20.28772 00 03 56.62 +12 43 55.1 19.7 V 703 – Catalina Sky Survey MPS 222397
2009 12 18.46227 09 35 14.53 +14 21 25.2 21.6 V G96 – Mt. Lemmon Survey MPS 307209
2009 12 18.47059 09 35 14.49 +14 21 24.7 20.8 V G96 – Mt. Lemmon Survey MPS 307209
2009 12 18.47895 09 35 14.38 +14 21 24.5 21.1 V G96 – Mt. Lemmon Survey MPS 307209
2009 12 18.48729 09 35 14.31 +14 21 24.4 20.9 V G96 – Mt. Lemmon Survey MPS 307209
2010 01 05.40530 09 28 48.24 +14 23 36.6   691 – Steward Observatory, Kitt Peak-Spacewatch MPS 309222
2010 01 05.42301 09 28 47.62 +14 23 37.3   691 – Steward Observatory, Kitt Peak-Spacewatch MPS 309222
2010 01 05.44071 09 28 47.06 +14 23 38.3   691 – Steward Observatory, Kitt Peak-Spacewatch MPS 309222
2010 01 07.23591 09 27 48.67 +14 25 14.8 21.0 V 291 – LPL/Spacewatch II MPS 309222
2010 01 07.24024 09 27 48.52 +14 25 14.8 21.2 V 291 – LPL/Spacewatch II MPS 309222
2010 01 07.24438 09 27 48.35 +14 25 15.2 21.2 V 291 – LPL/Spacewatch II MPS 309222
2010 01 17.25300 09 21 24.68 +14 37 50.7   691 – Steward Observatory, Kitt Peak-Spacewatch MPS 311145
2010 01 17.27067 09 21 23.88 +14 37 52.4   691 – Steward Observatory, Kitt Peak-Spacewatch MPS 311145
2010 01 17.28839 09 21 23.03 +14 37 54.4   691 – Steward Observatory, Kitt Peak-Spacewatch MPS 311145
2010 02 09.29043 09 03 02.62 +15 19 58.4 20.4 V G96 – Mt. Lemmon Survey MPS 312959
2010 02 09.30020 09 03 02.08 +15 19 59.4 19.7 V G96 – Mt. Lemmon Survey MPS 312959
2010 02 09.30983 09 03 01.72 +15 19 59.9 19.8 V G96 – Mt. Lemmon Survey MPS 312959
2010 02 11.358213 09 01 21.134 +15 23 50.88 20.87 g F51 – Pan-STARRS 1, Haleakala MPS 338848
2010 02 11.368568 09 01 20.651 +15 23 51.90 20.94 g F51 – Pan-STARRS 1, Haleakala MPS 338848
2010 02 14.20557 08 59 03.44 +15 29 00.2 20.4 V G96 – Mt. Lemmon Survey MPS 312959
2010 02 14.21387 08 59 03.01 +15 29 01.1 20.5 V G96 – Mt. Lemmon Survey MPS 312959
2010 02 14.22223 08 59 02.61 +15 29 02.1 20.7 V G96 – Mt. Lemmon Survey MPS 312959
2010 02 14.23058 08 59 02.18 +15 29 02.7 20.4 V G96 – Mt. Lemmon Survey MPS 312959
2011 04 02.44238 13 04 18.742 -19 39 56.92 19.6 r F51 – Pan-STARRS 1, Haleakala MPS 378503
2011 04 02.45409 13 04 18.146 -19 39 54.96 20.0 g F51 – Pan-STARRS 1, Haleakala MPS 378503
2011 04 02.46508 13 04 17.607 -19 39 52.97 20.0 g F51 – Pan-STARRS 1, Haleakala MPS 378503
2011 04 05.36334 13 01 57.07 -19 31 17.6 19.3 V G96 – Mt. Lemmon Survey MPS 378503
2011 04 05.37142 13 01 56.64 -19 31 16.1 19.5 V G96 – Mt. Lemmon Survey MPS 378503
2011 04 05.37948 13 01 56.24 -19 31 14.4 19.3 V G96 – Mt. Lemmon Survey MPS 378503
2011 04 05.38755 13 01 55.84 -19 31 12.7 19.2 V G96 – Mt. Lemmon Survey MPS 378503
2011 04 12.24402 12 56 20.03 -19 06 33.3 19.6   704 – Lincoln Laboratory ETS, New Mexico MPS 379597
2011 04 12.25561 12 56 19.50 -19 06 31.6 19.3   704 – Lincoln Laboratory ETS, New Mexico MPS 379597
